Weather in Naryn-Talacha

Russia / Zabaykalsky Krai     51°55′45″N   114°51′45″E
temp.,
°C
wind,
m/s
gust,
m/s
humid.,
%
clouds,
%
prec.,
mm/h
press.,
hPa
HPBL,
m
22 october, fri
fri2200:00−5nw21933 0.0 102913
03:00−5wnw21945 0.0 102913
06:00−6wnw11955 0.0 102912
09:00−4w11865 0.0 102827
12:00+4sw23535 0.0 1025390
15:00+7sw34445 0.0 1022653
18:00−1sw11753 0.0 102410
21:00−4wnw11850 0.0 102510
23 october, sat
sat2300:00−5nw11881 0.0 102510
03:00−5wnw11900 0.0 102511
06:00−6wnw11910 0.0 102511
09:00−4wnw11780 0.0 102423
12:00+5w24440 0.0 1021486
15:00+7w35403 0.0 1019707
18:00+1wnw22655 0.0 102111
21:00−1nw22740 0.0 102310
24 october, sun
sun2400:00−2wnw11765 0.0 102210
03:00−3wnw117965 0.0 102210
06:00−3wnw118084 0.0 102110
09:00−2w11775 0.0 102129
12:00+4w355199 0.0 1018535
15:00+4wnw4551100 0.0 1016649
18:000w2273100 0.0 101823
21:00−2wnw228325 0.0 101912
25 october, mon
mon2500:00−3wnw22865 0.0 101812
03:00−3wnw21885 0.0 101812
06:00−4wnw239177 0.0 101875
09:00−3wnw238957 0.0 101884
12:00+3wnw385871 0.0 1016548
15:00+5wnw51056100 0.0 10141011
18:00+3wnw51264100 0.0 1016619
21:000wnw412761 0.0 1018453
26 october, tue
tue2600:00−2wnw412815 0.0 1019412
03:00−2wnw412835 0.0 1020422
06:00−3wnw39835 0.0 1021281
09:00−3wnw278176 0.0 1023257
12:00+3wnw355129 0.0 1020716
15:00+3w4647100 0.0 10191066
18:000wsw2269100 0.0 101726
21:00−1wnw3108049 0.0 1017251